Location: Blienschwiller
(48.3416°N, 7.4182°E)
Time: 16:43:07
(UTC+00:00)

NOSS 3-1 (A) - Pass Details

Date: 18 February 2020
Orbit: 761 x 1452 km, 63.4° (Epoch: 26 March)

Event Time Altitude Azimuth Distance (km) Brightness Sun altitude
Exits shadow 02:56:37 72° 37° (NE) 1,325 4.1 -36.0°
Maximum altitude 02:56:46 72° 46° (NE) 1,327 4.1 -36.0°
Drops below altitude 10° 03:05:17 10° 130° (SE) 3,464 6.6 -34.7°
Sets 03:08:21 0° 133° (SE) 4,488 7.2 -34.2°
